Probability
23 22 21 18 16 17 18 15 13 12 9 7 8 9 8 6 5 2 1 1 2 3 1 0 0 0 1 0 0 0 0 0 0 0 0 1 2 2 0 0 0 0 0
19 19 19 17 15 16 15 12 10 10 8 8 9 10 8 5 3 1 1 1 3 3 2 1 0 0 1 0 0 0 0 0 0 0 0 1 3 2 0 0 0 0 0
14 15 15 15 15 15 13 10 7 7 8 7 9 10 8 4 2 1 2 3 3 3 2 1 1 1 1 0 0 0 0 0 0 0 0 1 1 1 1 1 1 2 1
12 13 14 14 15 14 12 9 8 8 7 7 8 9 7 4 2 2 3 4 4 3 1 1 1 1 0 0 0 0 0 0 0 0 0 0 0 1 2 2 2 2 1
12 14 15 16 16 15 12 10 10 11 10 10 10 8 7 5 3 3 4 5 5 4 2 1 1 1 0 0 0 0 0 0 0 0 0 0 0 2 3 2 1 1 1
11 13 15 16 16 15 14 15 15 15 15 14 11 9 8 6 3 2 3 5 7 7 5 2 0 0 0 0 0 0 0 0 0 0 0 0 0 1 2 1 1 1 1
11 12 14 15 15 15 16 18 19 18 17 14 10 9 8 6 2 0 2 5 7 8 7 4 2 1 1 2 1 1 1 1 1 1 1 1 1 2 2 2 3 4 4
13 12 12 13 14 16 17 18 18 17 16 13 11 11 10 5 1 0 1 4 6 6 6 5 3 2 2 2 2 2 3 2 1 1 2 2 2 3 3 3 3 4 5
12 12 12 13 14 16 17 16 16 17 16 14 13 13 12 6 2 0 1 5 7 8 8 5 3 2 2 2 2 3 4 4 3 2 1 1 1 2 2 2 2 3 4
10 11 14 16 16 16 17 17 16 16 15 13 12 12 12 9 3 0 2 7 11 12 12 9 4 2 1 0 2 3 3 4 6 6 4 3 2 1 1 2 2 3 4
11 13 16 19 18 19 19 19 18 15 13 12 10 9 10 9 5 1 2 6 11 15 15 12 7 2 0 0 1 2 1 2 7 9 9 7 5 4 4 5 5 6 7
13 15 17 19 18 18 19 19 17 14 11 10 9 8 9 8 4 1 1 2 7 12 14 12 7 2 0 0 0 0 0 1 3 6 8 8 8 7 8 9 9 9 11
16 16 18 18 17 16 17 16 16 14 11 9 8 7 8 7 5 2 1 0 3 8 9 7 4 1 0 0 0 0 0 0 1 2 4 5 6 7 8 8 8 8 9
17 18 19 19 18 16 15 15 15 14 11 9 8 6 6 6 6 3 2 1 2 4 5 3 2 1 0 0 0 1 1 1 1 2 3 3 3 4 5 5 4 4 4
18 19 19 19 19 17 15 13 12 11 10 8 7 5 4 4 4 3 3 2 3 3 4 4 3 2 2 1 1 3 3 3 3 4 4 4 3 3 4 4 3 2 1
19 19 19 19 19 16 13 10 8 7 6 4 4 3 3 2 2 2 2 1 1 2 4 6 6 5 4 3 3 4 5 5 5 5 6 6 5 4 5 5 3 1 0
17 17 18 18 17 15 12 9 7 6 4 2 1 1 1 1 0 1 1 0 0 1 3 5 6 6 6 5 4 4 4 5 6 6 5 5 5 5 5 4 2 0 0
12 13 15 15 14 13 12 10 8 7 6 4 2 0 0 0 0 0 0 0 0 1 2 4 6 6 6 6 5 4 3 4 5 5 3 3 4 4 3 3 2 1 0
9 10 11 11 10 10 10 8 6 6 6 5 3 1 0 0 0 0 0 0 1 2 3 5 6 6 6 5 4 3 3 3 4 3 2 2 2 2 1 1 1 1 0
6 7 7 7 6 8 8 6 4 4 5 5 4 2 0 0 0 0 0 0 1 2 3 5 6 5 4 4 3 3 3 3 3 2 1 1 1 1 0 0 0 0 0
5 5 5 5 6 7 7 6 4 4 4 3 3 1 0 0 0 0 0 0 1 1 1 3 3 3 3 2 2 2 2 2 2 1 0 0 0 0 0 0 0 0 0
4 4 5 6 7 8 7 6 4 3 2 2 1 0 0 0 0 0 0 0 0 0 0 1 1 1 1 1 1 1 1 1 1 0 0 0 0 0 0 0 0 0 0
3 3 4 6 7 6 6 5 4 2 1 2 2 1 0 0 0 0 0 0 0 0 0 0 0 0 0 0 0 0 0 0 0 0 0 0 0 0 0 0 0 0 0
2 2 3 3 4 4 4 4 3 1 1 2 2 1 0 0 0 0 0 0 0 0 0 0 0 0 0 0 0 0 0 0 0 0 0 1 1 1 1 1 0 0 0
1 1 1 1 2 3 3 3 2 1 0 1 1 0 0 0 0 0 0 0 0 0 0 0 0 0 0 0 0 0 0 0 0 0 0 1 2 2 2 2 1 0 0
0 0 0 0 1 2 3 3 2 1 0 0 0 0 0 0 0 0 0 0 0 0 0 0 0 0 0 0 0 0 0 0 0 0 0 1 3 3 3 2 1 0 0
Wind_Speed
3 3 3 3 4 4 4 4 4 4 4 5 5 5 5 5 5 5 5 5 5 5 5 5 5 5 3 4 4 4 4 3 3 2 1 2 2 3 2 3 4 4 4
3 3 3 2 3 3 4 3 4 4 4 5 5 5 5 5 5 6 6 6 6 6 6 5 6 4 4 4 4 4 3 3 4 3 2 2 3 3 3 4 4 4 3
3 3 3 3 3 3 3 3 3 4 4 4 5 5 5 5 6 6 6 6 6 6 5 5 5 5 4 4 4 4 4 4 3 3 3 2 3 3 3 4 4 3 5
3 3 3 3 3 3 2 3 3 4 4 4 5 5 5 6 6 6 6 6 6 6 5 5 5 4 4 4 4 4 4 4 4 4 3 3 3 3 3 4 3 3 4
3 3 3 3 3 2 2 2 3 3 4 4 4 4 5 5 5 6 6 7 6 6 5 6 5 3 3 3 3 3 4 4 4 4 4 3 3 2 3 3 3 3 3
3 3 2 2 3 3 3 2 3 3 3 3 4 4 4 3 2 3 5 6 6 6 6 5 6 6 5 5 3 3 3 4 4 4 4 3 3 4 3 4 4 4 3
3 3 3 3 3 3 3 3 3 3 3 3 4 4 4 3 2 4 5 6 6 6 6 6 6 5 7 6 6 7 5 5 5 5 5 5 4 3 4 5 4 5 4
3 3 2 2 3 3 3 3 3 3 3 3 4 4 4 3 4 5 5 7 6 6 6 6 6 5 5 5 6 6 6 6 7 7 6 6 5 4 4 6 5 6 6
2 2 2 2 3 3 3 3 3 3 3 4 4 5 5 4 4 5 6 6 5 6 6 6 6 6 4 5 7 6 6 6 6 5 5 4 4 3 4 6 6 6 5
2 2 3 3 3 4 4 4 3 4 4 4 4 4 5 5 5 5 7 6 5 5 5 6 5 5 6 6 7 7 7 6 5 5 6 7 8 7 7 7 7 6 5
3 3 3 3 4 4 4 4 4 4 4 4 4 5 5 4 6 7 7 6 5 5 5 5 5 7 7 8 8 7 5 5 6 6 6 6 6 6 7 7 6 6 6
2 2 3 3 3 2 3 3 4 4 4 4 4 5 4 4 4 6 7 8 6 5 5 4 3 7 8 8 7 5 5 6 6 6 6 6 5 5 4 5 6 6 6
2 2 2 3 3 2 3 3 4 4 4 3 4 4 3 3 4 5 7 7 7 6 4 2 1 5 7 7 8 7 7 7 7 7 7 6 5 4 4 4 6 6 7
3 3 2 3 3 3 3 3 3 3 3 4 4 4 3 3 3 4 4 5 6 6 5 3 5 6 6 5 5 7 7 6 6 6 6 5 5 5 5 5 4 4 5
3 3 3 3 3 3 3 3 4 3 3 4 4 4 4 4 1 1 3 4 5 4 4 4 4 5 6 6 6 6 6 6 6 6 6 6 5 5 5 4 4 4 5
3 3 3 3 3 3 3 3 3 4 3 4 5 5 4 2 1 2 4 5 5 4 5 5 5 6 7 6 6 6 6 6 6 6 6 6 6 6 5 5 5 5 5
3 3 3 3 3 3 3 3 3 3 4 5 5 5 6 4 3 4 5 5 5 6 7 6 6 6 6 6 6 6 6 6 5 6 6 6 6 6 6 5 6 6 6
4 3 4 4 4 4 4 4 4 4 3 3 4 5 6 6 5 5 6 5 5 7 7 7 6 6 6 6 6 5 5 5 5 6 6 5 5 5 6 6 6 6 5
4 4 3 4 4 4 4 4 4 4 4 4 3 2 5 5 5 6 8 6 6 6 6 6 6 6 5 5 5 5 5 5 5 5 5 5 5 5 5 6 5 5 6
4 4 5 5 5 5 4 4 4 3 3 3 3 3 2 3 3 4 5 6 6 6 6 5 5 5 5 5 5 5 5 5 5 5 5 4 4 5 5 6 5 5 5
4 4 5 5 5 4 4 4 4 4 4 3 3 2 2 4 4 4 4 5 5 5 4 4 4 5 5 5 5 5 6 5 5 5 5 5 5 5 5 5 5 5 5
5 5 4 4 4 4 4 4 4 4 4 4 3 2 4 4 4 4 4 3 3 3 3 4 4 4 3 4 4 4 5 5 5 5 5 5 4 5 5 5 5 5 5
5 6 5 4 4 4 5 4 4 4 3 4 3 2 2 3 3 3 3 3 3 3 3 3 3 3 3 3 4 4 4 4 4 4 5 5 5 5 5 6 6 6 5
5 5 5 4 4 4 4 4 4 4 3 3 3 3 3 3 3 3 3 3 3 3 3 3 3 4 5 4 4 4 3 3 4 5 7 6 6 6 5 6 6 7 6
5 4 4 4 4 3 3 4 4 3 3 3 3 3 3 3 3 3 3 2 3 3 3 4 3 3 4 4 3 2 1 1 2 4 5 6 6 6 6 7 6 7 7
5 4 4 4 3 4 4 4 4 4 3 3 3 3 3 3 3 3 2 2 2 2 2 2 3 3 3 3 1 0 0 1 2 4 5 6 7 6 6 6 8 7 7
Wind_Direction
182 191 189 198 209 212 215 217 216 223 220 215 209 209 205 203 201 210 222 212 215 216 225 222 228 244 236 236 229 232 238 245 249 231 198 161 201 248 212 248 247 240 209
173 183 184 195 210 217 216 219 215 219 221 215 211 212 213 209 205 209 219 214 217 219 221 223 228 225 224 240 236 234 229 235 244 240 233 207 210 225 230 246 252 247 259
168 173 176 190 199 215 224 221 213 216 222 224 218 215 214 214 212 212 217 217 218 221 222 223 228 227 226 229 238 234 225 215 227 235 234 222 225 221 230 234 241 257 261
174 177 175 189 201 210 216 222 217 215 218 224 225 223 218 216 216 217 218 217 219 221 222 224 225 225 226 227 225 231 234 228 217 235 238 223 221 210 232 239 232 226 256
190 191 189 191 196 198 204 212 220 220 216 219 224 224 223 219 220 225 225 218 217 218 218 220 218 216 227 241 246 224 223 231 227 230 230 228 223 219 234 250 257 248 234
201 205 204 205 204 205 204 214 224 224 217 216 219 225 225 229 203 233 249 234 224 218 218 218 208 195 196 211 246 271 269 245 247 249 243 242 245 243 248 259 261 259 254
205 216 215 217 219 220 217 216 226 225 223 224 225 228 229 224 186 213 241 243 233 226 219 219 222 197 201 207 204 210 221 239 251 262 260 259 253 252 261 258 258 273 282
207 219 218 226 227 229 229 230 234 231 230 233 233 233 229 209 188 207 227 232 234 230 226 223 224 214 208 221 218 211 215 213 219 229 247 257 266 275 259 260 264 251 252
213 226 231 234 231 232 235 238 239 233 232 236 235 235 233 210 186 201 224 228 224 224 223 220 222 216 192 225 228 223 226 228 216 225 251 266 298 296 281 261 251 249 251
227 233 239 240 235 238 235 234 233 232 232 235 235 238 234 222 188 198 223 235 226 226 216 215 213 222 191 206 228 227 229 234 239 212 218 231 235 229 226 244 258 261 265
244 237 237 239 237 238 234 231 228 233 234 237 236 236 232 225 190 195 217 243 233 232 224 219 204 182 194 207 232 239 238 249 243 239 233 226 220 217 214 219 239 257 264
236 227 227 237 243 238 226 230 233 233 231 232 231 236 225 210 199 196 207 234 267 247 243 238 200 170 193 206 220 231 234 246 244 242 242 238 233 231 224 227 231 244 258
239 235 234 244 251 254 241 231 225 222 234 234 231 233 234 216 187 186 203 222 245 252 257 276 176 172 191 205 214 216 222 235 241 243 245 245 243 241 239 227 223 228 241
247 245 248 250 253 251 250 243 243 235 240 244 248 247 243 230 217 192 200 209 219 230 240 213 190 197 219 231 207 208 222 234 242 247 250 248 244 234 231 237 238 232 236
251 251 251 250 253 259 258 266 259 256 271 270 269 263 261 255 253 309 248 221 220 220 222 218 216 209 213 215 217 219 222 221 226 236 240 241 241 242 240 236 240 244 247
254 258 257 257 256 255 256 255 241 250 251 252 266 276 276 271 243 245 243 242 238 213 222 228 224 222 223 221 220 219 220 227 233 235 234 237 240 241 239 234 236 242 246
262 267 268 264 261 263 264 265 267 241 226 233 235 240 249 253 245 234 228 221 219 200 222 232 231 230 230 227 226 228 227 223 226 232 234 235 236 238 239 237 239 241 245
265 253 257 260 263 259 255 255 258 265 263 251 222 215 218 221 225 221 201 196 212 211 230 233 230 230 233 234 235 235 234 227 223 229 233 236 236 238 240 238 237 239 244
270 265 263 266 262 259 256 254 253 255 263 273 277 220 202 203 205 210 198 224 229 226 231 237 237 237 239 241 241 239 240 237 234 235 234 235 238 241 247 247 245 237 245
257 258 259 263 261 258 258 263 262 258 258 262 267 271 237 230 233 215 221 237 239 235 234 237 240 242 242 242 240 238 236 238 236 236 237 234 234 237 240 246 252 249 246
270 252 239 250 257 262 263 264 268 267 262 260 259 258 260 263 262 259 257 249 244 242 242 242 241 241 241 243 239 233 234 239 238 237 238 236 233 233 237 240 244 251 255
277 272 262 262 264 265 268 268 269 267 267 269 266 229 206 242 255 258 257 256 251 245 242 243 245 245 246 248 252 241 232 233 238 239 239 239 239 241 242 243 243 246 249
279 280 274 267 264 257 258 265 268 269 272 276 277 275 254 260 263 265 270 268 264 257 250 244 248 247 243 246 251 248 241 237 238 237 238 239 239 239 241 244 245 246 247
280 277 276 272 267 265 268 272 269 267 269 270 277 278 275 274 275 277 277 267 252 249 250 248 241 241 242 241 241 242 240 247 251 243 241 244 243 244 243 244 246 246 247
281 282 282 279 275 273 271 272 272 271 273 275 277 278 278 273 270 274 273 266 258 245 242 244 238 237 238 242 249 266 24 326 270 266 245 247 247 246 249 250 251 251 251
284 287 287 286 287 286 282 277 276 275 274 280 283 282 283 279 269 266 264 262 272 266 261 255 248 247 247 240 237 267 219 222 244 265 258 248 248 246 246 249 251 252 251